Wetbulb
61.92 58.44 52.45 52.91 46.07 42.98 39.81 42.32 45.19 46.41 46.60 51.67 54.03 55.92 54.98 55.75 53.44 49.67 63.36 66.32 66.85 68.39 69.21 69.05 70.91 71.58 71.30 71.08 70.91 70.97 71.45 71.35 70.97 70.75 70.60 70.26 69.54 69.07 67.87 67.31 66.83 67.12 67.02 66.66 66.13 65.99 66.39 66.15 65.84
59.47 56.62 52.34 47.52 41.71 39.11 40.50 43.83 45.24 47.36 50.49 54.47 56.48 56.15 55.22 53.50 58.87 62.45 64.12 67.50 68.45 68.20 68.38 68.11 69.89 71.36 70.88 71.22 70.96 70.71 70.21 71.05 70.63 70.90 70.26 69.72 69.21 68.37 67.79 67.10 66.89 66.80 66.70 66.54 65.66 65.73 65.91 65.39 65.84
55.48 54.24 48.56 44.66 40.50 38.87 39.96 46.84 47.69 50.45 52.05 52.29 54.01 57.75 56.08 55.95 59.51 61.45 65.80 67.63 67.85 67.47 67.18 68.02 69.67 70.72 70.63 70.77 70.83 70.39 70.56 70.61 70.24 70.46 69.91 69.35 68.57 67.95 67.36 66.42 66.50 66.19 66.42 66.22 65.82 65.61 65.14 65.30 65.82
52.62 51.34 47.19 42.46 41.27 43.97 44.75 48.74 49.46 49.77 51.13 54.75 55.67 53.90 57.70 60.57 60.23 64.45 67.25 66.95 66.72 66.43 67.00 68.42 69.83 70.22 69.95 70.05 70.11 70.27 70.02 69.87 70.27 70.61 70.02 69.02 68.23 67.35 66.62 66.18 66.51 66.23 66.15 66.11 65.70 65.10 64.99 65.15 65.30
51.74 47.79 40.85 39.61 42.03 44.49 47.83 50.50 49.87 48.35 49.60 51.77 54.73 53.29 54.26 60.86 63.16 66.11 66.47 67.01 65.97 66.01 67.02 68.22 69.35 69.90 69.44 69.21 69.41 70.31 69.85 70.49 70.88 70.88 69.43 68.78 67.90 67.08 66.40 66.33 66.07 65.95 65.73 65.66 65.20 64.70 64.53 64.60 64.87
47.48 45.74 39.67 39.32 41.94 45.63 46.11 51.22 50.58 49.44 50.22 52.35 54.41 54.07 54.96 60.63 63.21 65.41 67.03 66.41 66.28 65.83 66.84 67.82 66.88 68.03 68.72 68.64 69.06 68.80 68.68 69.99 69.80 69.92 68.80 67.78 67.22 66.72 66.16 65.87 65.78 65.66 65.49 65.25 64.77 64.27 63.96 64.08 64.10
45.28 43.88 40.19 40.73 41.09 42.61 45.52 49.36 48.55 50.56 51.18 50.99 56.55 52.74 55.21 57.18 61.70 66.18 66.36 65.72 65.59 66.57 66.36 65.78 66.64 66.99 66.01 66.81 67.13 67.67 68.54 68.55 69.06 69.04 68.22 67.58 67.12 66.79 66.08 65.68 65.13 65.20 65.08 64.60 64.29 63.64 63.39 63.23 63.42
46.70 46.03 42.56 43.56 43.57 44.24 45.93 48.15 48.97 50.11 50.06 54.50 56.78 52.17 53.74 58.83 61.63 63.68 65.08 63.94 64.36 65.31 65.15 64.50 64.96 65.76 65.16 64.57 63.57 64.59 65.90 67.08 66.84 66.49 65.59 64.95 65.12 65.30 64.85 64.06 65.10 64.61 64.28 63.99 63.42 63.13 62.67 62.54 62.31
50.63 43.24 42.82 45.17 42.31 43.41 46.78 45.70 49.19 50.63 51.77 53.86 56.06 55.07 56.98 61.08 61.65 61.03 63.70 63.18 63.46 63.71 64.42 64.55 64.06 63.96 63.84 63.40 61.76 62.47 64.13 64.48 63.75 63.02 62.28 61.44 61.61 61.95 61.72 62.25 64.43 64.34 64.06 63.30 62.90 62.26 61.46 61.37 60.21
46.99 42.06 45.29 49.97 43.97 41.98 46.55 45.89 48.45 49.04 48.76 50.86 54.48 58.09 59.49 60.35 60.54 59.51 62.31 62.54 62.86 62.32 62.52 64.31 63.59 63.46 63.10 63.85 61.96 61.53 62.64 62.05 61.26 60.52 60.60 61.44 61.00 60.92 61.57 60.34 62.18 63.25 62.63 63.04 62.22 61.91 61.70 59.19 57.02
47.68 44.83 48.90 48.02 47.38 45.81 46.57 45.72 47.60 48.34 46.24 50.62 53.12 56.91 58.16 58.65 58.79 58.91 61.01 63.07 63.05 63.05 62.87 62.46 63.54 63.76 62.73 62.01 61.32 60.85 60.25 60.21 60.54 60.19 61.34 61.12 59.84 58.47 58.05 57.47 58.19 57.39 58.03 57.20 58.14 58.19 57.50 56.95 56.65
43.90 50.38 51.46 52.31 49.84 47.36 45.11 45.52 45.08 45.98 47.01 50.22 55.69 58.75 58.85 58.54 58.77 59.37 59.93 61.51 62.78 63.22 63.16 63.07 62.85 63.83 62.52 62.12 60.64 60.20 59.92 59.43 59.49 60.16 60.67 59.03 57.71 56.35 55.85 55.43 55.10 55.49 56.44 56.58 56.72 56.74 56.99 57.06 57.23
44.49 47.89 51.92 53.41 50.05 46.73 46.52 44.08 44.04 43.59 45.65 52.66 59.04 58.87 58.49 58.99 59.14 59.25 61.03 62.10 62.45 63.07 63.27 64.41 63.01 62.63 62.03 61.65 60.28 59.73 59.51 59.45 59.66 59.64 60.20 58.87 57.33 56.59 56.75 56.25 56.65 56.75 57.37 57.26 56.78 57.00 57.48 57.04 57.38
49.18 49.46 50.29 50.50 47.38 46.48 45.30 44.93 45.93 44.66 47.77 55.83 58.07 57.27 57.74 58.01 58.28 59.19 60.53 61.35 61.22 62.09 63.51 64.23 63.30 62.70 62.06 61.05 59.71 58.94 58.74 59.49 59.54 59.49 59.87 59.29 58.01 56.91 56.83 56.59 57.53 57.67 57.62 57.72 57.35 57.13 56.88 57.01 57.64
49.40 46.30 48.57 50.04 46.68 44.08 46.92 43.30 44.79 46.07 51.75 54.98 55.39 55.35 56.39 57.45 57.79 59.07 60.32 61.05 61.44 61.99 62.09 62.64 64.62 62.07 62.05 60.42 60.25 59.00 58.36 59.11 58.81 59.14 59.21 58.55 57.85 56.56 56.73 57.09 57.51 57.84 58.14 57.68 57.55 57.11 56.61 56.42 59.05
44.87 42.45 38.32 45.34 45.25 45.68 44.92 40.38 46.96 49.26 46.35 50.99 52.73 53.77 55.57 56.84 57.87 58.76 59.81 61.12 61.70 62.56 60.70 62.35 64.02 63.24 61.38 60.25 59.99 59.16 58.34 58.38 58.67 58.75 58.80 58.49 58.53 57.68 57.51 57.50 58.07 58.48 58.32 58.02 57.24 56.09 55.49 54.94 54.18
38.46 34.48 36.46 41.33 45.16 43.93 44.24 41.71 46.96 49.00 48.72 45.87 47.96 51.51 54.90 55.87 56.56 58.24 59.56 60.96 61.57 61.63 60.44 60.68 62.73 62.99 60.11 59.01 59.36 58.58 58.07 57.71 57.99 58.64 58.77 58.72 59.16 58.68 58.24 58.30 58.48 58.52 58.24 57.45 56.98 55.67 54.67 54.41 53.86
33.09 33.33 36.58 38.01 43.20 42.09 41.86 41.78 44.51 46.78 46.91 45.97 44.31 45.81 51.62 55.10 56.81 58.53 59.22 60.93 59.97 61.11 60.78 61.02 62.31 63.09 62.20 60.28 57.43 57.16 57.03 57.10 57.34 58.54 59.39 58.92 59.29 58.84 58.02 58.10 58.12 58.30 57.41 56.85 56.09 55.34 55.42 54.55 53.66
38.79 37.67 37.45 38.93 44.24 40.23 40.66 42.56 42.98 46.20 44.14 44.03 43.07 43.17 44.98 52.67 57.07 59.06 59.35 59.97 60.25 59.58 60.04 60.18 61.22 62.83 62.59 61.01 58.35 56.43 56.48 56.45 56.72 57.92 59.17 59.51 59.43 58.89 57.77 57.91 57.94 57.53 57.01 56.95 56.43 55.26 54.43 54.18 55.24
39.81 36.75 36.11 40.71 42.87 40.73 40.05 40.25 44.35 43.42 43.94 44.81 44.51 44.10 44.06 44.83 52.85 57.09 58.45 59.06 59.82 58.54 59.69 59.89 61.20 62.02 62.20 62.80 60.87 58.16 57.69 56.60 57.81 57.97 58.14 59.69 59.28 59.27 58.52 58.05 57.52 57.41 56.55 56.23 55.79 54.46 53.90 53.70 55.10
40.26 38.01 37.33 38.30 39.96 40.08 37.67 38.14 40.91 43.49 45.20 45.85 46.63 47.82 47.51 47.22 46.56 53.23 57.19 58.45 59.79 59.53 58.36 59.24 60.68 61.59 62.00 62.15 60.31 58.54 57.59 56.97 56.49 56.25 57.38 59.24 59.71 59.44 59.24 58.61 58.48 57.56 57.03 56.91 55.57 55.22 54.56 53.47 54.78
36.29 42.22 42.38 41.02 38.20 33.10 38.88 32.31 38.93 42.94 43.97 44.92 47.37 48.00 48.65 49.05 50.65 49.26 55.52 57.37 58.84 60.19 58.64 59.09 59.56 60.68 61.37 61.63 60.87 59.90 59.03 57.53 58.55 58.28 58.68 58.70 59.88 59.98 59.90 59.36 59.07 58.54 58.01 56.95 56.71 56.39 55.47 54.98 54.22
38.16 43.22 42.18 40.98 38.55 37.79 37.51 34.93 36.35 41.16 40.47 43.69 46.93 49.12 50.19 50.87 50.72 50.49 51.64 56.99 58.98 60.26 59.56 58.10 58.70 59.35 60.23 60.90 61.28 60.32 59.47 59.71 59.26 59.08 58.52 58.77 59.69 60.55 60.21 59.99 59.14 58.85 57.90 57.81 56.98 55.35 56.15 56.79 54.76
43.39 40.57 39.58 36.89 38.20 33.46 36.50 35.86 34.25 38.84 41.43 43.49 46.28 47.64 48.99 49.33 50.00 51.28 50.58 55.42 57.83 59.67 59.84 57.38 57.15 58.37 59.69 60.15 60.56 60.24 59.74 59.56 58.41 57.60 57.88 58.64 59.36 60.33 60.50 60.27 59.74 59.16 58.66 57.85 57.32 57.08 56.80 56.77 56.85
42.55 38.35 31.45 30.63 30.46 28.10 35.59 33.75 37.38 41.40 43.31 46.08 46.84 47.10 46.33 46.93 48.04 49.58 49.70 50.30 55.98 57.52 58.75 57.98 55.71 56.59 59.11 59.69 59.88 60.13 59.67 59.34 58.79 57.97 58.19 58.11 58.64 59.23 60.33 60.20 59.57 59.22 58.68 58.51 58.18 57.18 57.04 56.73 57.37
38.91 38.36 29.35 24.44 25.32 27.39 34.30 32.11 36.56 43.37 47.74 48.69 47.90 46.41 45.44 45.40 46.14 46.85 49.54 48.66 54.07 56.74 58.24 58.86 56.46 55.89 57.05 59.01 59.29 59.87 60.05 59.56 59.24 58.43 58.73 58.87 59.22 59.81 60.18 60.32 60.48 59.66 59.01 58.36 57.85 57.66 57.24 57.30 56.93
37.39 35.85 38.73 29.26 19.14 24.22 29.49 32.97 37.42 40.78 42.53 45.53 45.50 44.46 44.65 44.05 43.74 45.11 45.87 48.25 48.79 55.06 57.60 58.99 58.83 57.40 56.33 56.75 58.19 58.45 59.01 59.14 58.98 58.79 58.82 59.16 59.67 60.18 60.20 60.23 59.70 59.74 58.92 58.37 57.89 57.30 56.81 56.57 56.49
41.19 41.94 34.40 34.34 22.58 19.92 25.94 27.37 33.30 35.25 40.08 44.26 41.85 41.88 42.31 42.54 41.92 41.77 43.07 44.00 45.05 52.08 56.23 58.30 59.24 59.35 59.03 58.01 57.68 57.76 57.94 58.40 58.72 58.71 58.05 59.01 60.04 60.17 59.31 59.67 59.64 59.40 58.97 58.43 57.66 57.42 57.63 56.19 54.97
38.15 37.11 37.87 36.77 30.21 25.54 21.82 27.87 35.84 40.17 42.28 43.62 42.16 41.00 40.27 39.18 39.35 40.27 40.75 41.14 41.51 43.87 50.74 52.95 55.30 57.33 58.26 59.90 60.49 59.60 59.03 58.56 58.40 58.02 58.34 58.84 59.72 59.98 59.59 59.41 59.18 58.98 59.11 59.09 57.89 57.54 56.53 53.20 53.40
41.03 38.04 38.55 32.84 30.17 29.25 27.77 30.11 37.10 36.02 38.00 39.32 38.96 38.92 38.11 38.80 39.47 40.20 40.48 40.59 41.17 41.66 41.97 46.37 51.46 53.70 55.24 56.62 58.21 58.87 60.31 60.06 59.07 58.32 58.47 59.01 59.48 60.02 59.85 59.21 58.62 58.35 58.74 58.14 56.03 55.81 53.86 51.72 50.62
MSLP
1016.10 1015.65 1015.64 1015.85 1017.34 1018.05 1017.92 1017.35 1016.75 1016.68 1016.63 1016.63 1016.65 1017.09 1018.44 1019.18 1019.72 1020.48 1020.13 1020.26 1020.43 1020.82 1021.10 1021.24 1021.34 1021.53 1021.70 1021.84 1021.97 1022.06 1022.08 1022.18 1022.36 1022.46 1022.44 1022.68 1022.89 1022.95 1023.02 1023.17 1023.19 1023.26 1023.28 1023.42 1023.48 1023.55 1023.63 1023.68 1023.72
1016.33 1015.77 1016.00 1016.93 1017.86 1018.38 1018.07 1017.17 1016.90 1016.72 1016.81 1017.08 1017.34 1017.94 1018.83 1019.68 1019.80 1020.15 1020.41 1020.58 1020.32 1020.88 1021.21 1021.38 1021.52 1021.68 1021.84 1021.96 1022.09 1022.16 1022.27 1022.45 1022.57 1022.63 1022.72 1022.96 1023.29 1023.23 1023.38 1023.44 1023.54 1023.59 1023.65 1023.72 1023.76 1023.81 1023.90 1023.99 1024.02
1016.13 1016.31 1017.08 1017.54 1018.10 1018.23 1017.68 1017.15 1016.93 1017.00 1016.96 1017.05 1017.98 1018.51 1019.40 1019.81 1019.97 1020.01 1020.02 1020.42 1020.52 1021.04 1021.37 1021.52 1021.66 1021.81 1021.97 1022.08 1022.21 1022.34 1022.46 1022.61 1022.76 1022.85 1022.98 1023.29 1023.57 1023.66 1023.80 1023.71 1023.85 1023.95 1023.97 1023.99 1024.08 1024.15 1024.27 1024.33 1024.33
1016.69 1016.99 1017.65 1017.82 1017.80 1017.24 1017.02 1016.95 1016.81 1016.95 1017.11 1017.27 1018.18 1019.41 1019.76 1019.76 1019.69 1019.62 1020.01 1020.38 1020.81 1021.25 1021.54 1021.60 1021.79 1022.02 1022.13 1022.12 1022.22 1022.34 1022.50 1022.72 1022.97 1023.02 1023.24 1023.61 1023.80 1024.04 1024.22 1024.13 1024.30 1024.33 1024.31 1024.29 1024.43 1024.58 1024.69 1024.71 1024.67
1017.47 1017.89 1018.23 1017.99 1017.58 1016.84 1016.57 1016.53 1016.83 1016.93 1017.25 1017.73 1018.21 1019.82 1020.19 1019.81 1019.68 1019.93 1020.23 1020.56 1020.98 1021.48 1021.73 1021.81 1021.98 1022.16 1022.28 1022.26 1022.18 1022.36 1022.53 1022.71 1022.97 1023.17 1023.52 1023.90 1024.15 1024.41 1024.60 1024.65 1024.71 1024.70 1024.69 1024.69 1024.78 1024.88 1024.95 1024.94 1024.88
1018.36 1018.59 1018.75 1018.21 1017.41 1016.72 1016.52 1016.44 1016.70 1016.88 1017.38 1018.10 1018.83 1019.84 1020.44 1020.22 1020.07 1020.20 1020.30 1020.78 1020.98 1021.63 1021.93 1022.10 1022.21 1022.41 1022.50 1022.58 1022.46 1022.44 1022.56 1022.78 1023.03 1023.25 1023.75 1024.14 1024.46 1024.67 1024.81 1024.89 1024.97 1025.01 1025.08 1025.11 1025.14 1025.18 1025.18 1025.14 1025.10
1018.55 1018.98 1018.90 1018.09 1017.35 1016.74 1016.33 1016.31 1016.69 1016.82 1017.20 1017.89 1018.48 1020.14 1020.77 1020.62 1020.29 1020.32 1020.42 1020.70 1021.29 1021.72 1022.11 1022.34 1022.46 1022.63 1022.85 1022.90 1022.97 1022.94 1023.02 1023.10 1023.22 1023.50 1023.87 1024.35 1024.64 1024.87 1025.04 1025.14 1025.25 1025.31 1025.35 1025.36 1025.38 1025.36 1025.33 1025.30 1025.25
1018.69 1019.09 1018.87 1018.09 1017.51 1016.62 1016.13 1016.36 1016.54 1016.68 1017.22 1017.59 1018.07 1019.70 1020.66 1020.24 1020.39 1020.57 1020.82 1021.27 1021.66 1022.02 1022.30 1022.53 1022.74 1022.92 1023.16 1023.31 1023.30 1023.35 1023.43 1023.58 1023.70 1023.93 1024.16 1024.62 1024.97 1025.17 1025.34 1025.44 1025.47 1025.49 1025.53 1025.55 1025.57 1025.60 1025.59 1025.56 1025.47
1018.76 1019.17 1018.86 1018.34 1017.66 1017.13 1016.38 1016.41 1016.69 1016.81 1017.23 1018.10 1018.75 1019.25 1019.11 1019.44 1020.39 1020.85 1021.41 1021.76 1022.13 1022.43 1022.43 1022.61 1022.86 1023.14 1023.37 1023.58 1023.68 1023.69 1023.68 1023.82 1024.04 1024.29 1024.55 1024.87 1025.14 1025.36 1025.50 1025.63 1025.68 1025.67 1025.70 1025.71 1025.73 1025.74 1025.73 1025.77 1025.73
1019.43 1019.20 1018.57 1018.15 1017.77 1017.48 1016.72 1016.50 1016.69 1017.14 1017.80 1018.58 1019.15 1019.38 1019.36 1019.79 1020.38 1020.76 1021.04 1021.55 1022.08 1022.35 1022.68 1022.55 1022.94 1023.23 1023.46 1023.67 1023.99 1024.13 1024.21 1024.26 1024.34 1024.58 1024.86 1025.13 1025.26 1025.43 1025.53 1025.62 1025.66 1025.75 1025.81 1025.81 1025.82 1025.83 1025.77 1025.81 1025.86
1019.81 1019.23 1018.60 1018.20 1017.65 1017.44 1017.09 1016.77 1016.79 1017.09 1017.90 1018.27 1018.87 1019.62 1019.91 1020.22 1020.57 1020.73 1020.84 1020.89 1021.34 1021.76 1022.31 1022.65 1022.81 1023.16 1023.48 1023.70 1024.08 1024.29 1024.54 1024.58 1024.63 1024.80 1024.90 1025.09 1025.33 1025.57 1025.72 1025.85 1025.90 1026.00 1025.94 1026.01 1025.97 1025.95 1025.96 1025.94 1025.95
1020.44 1019.35 1018.49 1018.63 1017.95 1017.63 1017.42 1016.98 1017.00 1017.17 1017.30 1017.48 1018.15 1018.98 1019.78 1020.24 1020.38 1020.44 1020.66 1020.84 1021.10 1021.50 1021.81 1022.19 1022.59 1022.98 1023.43 1023.75 1024.09 1024.32 1024.45 1024.67 1024.87 1024.96 1025.09 1025.30 1025.42 1025.65 1025.80 1025.95 1025.99 1026.04 1026.02 1026.05 1026.05 1026.08 1025.96 1025.91 1025.86
1020.37 1019.71 1019.01 1018.43 1018.54 1018.27 1017.61 1017.35 1017.26 1017.26 1017.14 1017.62 1018.56 1019.33 1019.74 1020.02 1020.25 1020.20 1020.07 1020.65 1020.82 1021.11 1021.55 1021.81 1022.13 1022.68 1023.02 1023.57 1023.97 1024.36 1024.59 1024.63 1024.76 1025.01 1025.06 1025.29 1025.56 1025.69 1025.68 1025.79 1025.90 1025.94 1025.90 1025.96 1026.05 1026.00 1025.96 1025.96 1025.93
1019.97 1020.02 1019.54 1019.01 1018.70 1018.63 1018.04 1017.70 1017.54 1017.49 1017.51 1018.26 1018.87 1019.43 1019.79 1019.91 1019.92 1020.10 1020.01 1020.11 1020.52 1020.62 1020.97 1021.39 1021.69 1021.96 1022.50 1022.99 1023.62 1024.04 1024.33 1024.39 1024.61 1024.68 1024.78 1025.10 1025.30 1025.51 1025.65 1025.71 1025.71 1025.72 1025.70 1025.74 1025.84 1025.90 1025.97 1025.98 1025.95
1020.09 1020.26 1019.97 1019.01 1018.52 1018.34 1018.13 1017.99 1017.77 1017.50 1017.91 1018.73 1019.22 1019.41 1019.84 1019.89 1019.87 1019.62 1019.52 1019.37 1019.88 1020.21 1020.47 1020.79 1021.23 1021.32 1021.65 1022.17 1022.76 1023.20 1023.71 1024.09 1024.39 1024.56 1024.53 1024.56 1024.85 1025.24 1025.47 1025.64 1025.69 1025.63 1025.69 1025.80 1025.92 1025.99 1026.06 1026.11 1025.84
1020.58 1020.64 1020.36 1019.26 1018.83 1018.33 1018.73 1017.71 1017.51 1017.60 1018.14 1018.80 1019.28 1019.56 1019.60 1019.55 1019.22 1019.13 1019.18 1019.09 1019.23 1019.66 1020.13 1020.45 1020.77 1021.04 1021.15 1021.72 1022.15 1022.69 1023.10 1023.44 1023.73 1024.01 1024.35 1024.51 1024.60 1024.86 1025.15 1025.32 1025.36 1025.42 1025.53 1025.62 1025.77 1025.93 1026.08 1026.12 1026.10
1021.03 1020.77 1020.34 1019.88 1018.88 1018.55 1018.41 1017.47 1017.08 1017.22 1017.90 1018.56 1019.00 1019.12 1019.08 1019.12 1019.15 1018.73 1018.52 1018.68 1018.63 1019.08 1019.53 1020.04 1020.38 1020.80 1021.07 1021.53 1021.77 1022.20 1022.65 1023.05 1023.25 1023.53 1023.74 1023.88 1024.08 1024.30 1024.56 1024.79 1024.94 1025.07 1025.35 1025.52 1025.70 1026.00 1026.03 1026.15 1026.09
1021.03 1021.16 1020.45 1019.79 1018.96 1018.84 1018.57 1017.28 1017.19 1017.10 1017.57 1017.93 1018.10 1018.20 1018.31 1018.37 1017.97 1017.70 1017.80 1018.15 1018.21 1018.58 1019.24 1019.52 1019.97 1020.31 1020.68 1020.93 1021.63 1022.01 1022.48 1022.75 1022.88 1023.00 1023.21 1023.46 1023.74 1024.04 1024.44 1024.66 1024.81 1024.97 1025.19 1025.34 1025.55 1025.78 1025.85 1025.97 1026.02
1020.74 1020.79 1020.56 1019.58 1019.00 1019.00 1018.45 1017.55 1017.36 1016.99 1017.44 1017.46 1017.64 1017.65 1017.61 1017.39 1016.65 1016.81 1017.19 1017.61 1018.18 1018.35 1018.61 1018.98 1019.39 1019.68 1020.26 1020.73 1021.36 1021.77 1021.89 1022.46 1022.64 1022.52 1022.57 1022.93 1023.29 1023.69 1024.07 1024.21 1024.38 1024.70 1024.96 1025.16 1025.43 1025.77 1026.04 1026.08 1026.21
1021.08 1020.96 1020.57 1019.84 1019.10 1019.17 1018.73 1017.79 1017.25 1017.04 1016.81 1016.66 1016.79 1016.70 1016.74 1016.80 1016.58 1016.51 1016.80 1017.08 1017.34 1017.58 1017.84 1018.27 1018.46 1018.90 1019.44 1020.06 1020.49 1020.77 1021.40 1021.53 1021.53 1021.99 1022.33 1022.48 1022.67 1022.89 1023.33 1023.74 1024.13 1024.42 1024.77 1025.00 1025.22 1025.53 1025.86 1025.91 1025.94
1020.97 1021.03 1020.90 1020.35 1019.41 1019.13 1019.05 1018.05 1017.09 1016.44 1016.08 1015.74 1015.58 1015.47 1015.43 1015.45 1015.58 1015.56 1015.95 1016.10 1016.25 1016.64 1017.06 1017.24 1017.68 1018.17 1018.76 1019.28 1019.88 1020.51 1020.92 1021.42 1021.75 1021.85 1022.05 1021.98 1022.19 1022.40 1022.67 1023.07 1023.48 1023.87 1024.18 1024.43 1024.72 1025.10 1025.31 1025.46 1025.53
1020.58 1020.52 1020.85 1020.76 1020.25 1019.71 1019.23 1017.66 1016.27 1015.76 1015.41 1015.12 1014.53 1014.54 1014.45 1014.34 1014.13 1014.23 1014.52 1014.97 1015.19 1015.31 1015.86 1016.40 1016.94 1017.47 1017.92 1018.64 1019.08 1019.39 1019.80 1020.18 1020.31 1020.65 1020.93 1021.09 1021.41 1021.67 1021.93 1022.23 1022.61 1022.99 1023.46 1023.93 1023.99 1024.21 1024.65 1025.05 1025.26
1019.81 1019.91 1020.40 1020.70 1020.64 1020.33 1019.60 1019.11 1015.73 1015.44 1015.00 1014.10 1013.43 1013.16 1013.13 1012.99 1013.06 1013.25 1013.40 1013.60 1013.99 1014.53 1014.78 1015.22 1015.97 1016.58 1017.07 1017.71 1018.26 1018.72 1018.95 1019.17 1019.70 1020.11 1020.30 1020.41 1020.61 1020.86 1021.19 1021.58 1022.02 1022.37 1022.72 1022.81 1023.19 1023.67 1023.99 1024.18 1024.43
1019.44 1020.06 1020.52 1020.82 1020.86 1020.09 1018.91 1018.90 1015.03 1014.81 1014.04 1013.20 1012.55 1012.13 1012.14 1012.21 1012.09 1012.01 1012.10 1012.35 1012.82 1013.61 1014.10 1014.44 1015.09 1015.51 1016.18 1016.81 1017.47 1017.92 1018.22 1018.61 1019.11 1019.42 1019.73 1019.92 1019.97 1020.26 1020.41 1020.70 1021.03 1021.44 1021.85 1022.17 1022.33 1022.51 1023.06 1023.41 1023.73
1019.02 1019.88 1020.49 1021.03 1020.77 1018.28 1018.02 1018.38 1014.01 1013.63 1012.86 1011.94 1011.57 1011.29 1011.46 1011.70 1011.73 1011.57 1011.70 1011.95 1012.14 1012.64 1013.12 1013.64 1014.18 1014.78 1015.24 1015.80 1016.36 1016.94 1017.56 1018.04 1018.04 1018.40 1018.73 1019.25 1019.37 1019.31 1019.34 1019.70 1020.21 1020.44 1020.66 1020.96 1021.39 1021.92 1022.23 1022.48 1022.86
1018.06 1018.82 1018.86 1019.22 1019.44 1018.38 1018.07 1016.31 1013.52 1012.43 1011.69 1011.18 1010.76 1011.02 1011.31 1011.59 1011.44 1011.21 1010.95 1011.10 1011.28 1011.63 1012.07 1012.66 1013.23 1013.73 1014.37 1014.85 1015.28 1015.87 1016.48 1016.95 1017.17 1017.41 1017.59 1017.83 1018.00 1017.98 1018.21 1018.74 1018.99 1019.35 1019.67 1020.01 1020.58 1021.11 1021.37 1021.63 1021.88
1017.64 1017.51 1016.92 1018.44 1019.56 1018.94 1017.27 1015.06 1013.49 1012.31 1011.81 1011.05 1010.73 1010.92 1010.74 1010.83 1010.92 1011.03 1010.72 1010.51 1010.74 1011.02 1011.21 1011.72 1012.32 1012.79 1013.47 1013.84 1014.32 1014.72 1015.10 1015.57 1015.62 1016.05 1016.63 1016.82 1017.05 1017.20 1017.51 1017.62 1018.05 1018.22 1018.70 1019.05 1019.36 1019.89 1020.12 1020.48 1020.59
1016.06 1016.52 1017.57 1017.96 1018.57 1018.15 1016.28 1014.80 1012.65 1012.07 1011.36 1010.57 1010.57 1010.68 1010.69 1010.81 1010.58 1010.64 1010.54 1010.42 1010.50 1010.58 1010.67 1011.14 1011.52 1011.72 1011.96 1012.36 1012.85 1013.43 1013.94 1014.47 1014.80 1015.33 1015.58 1015.75 1015.87 1016.18 1016.43 1016.82 1017.17 1017.46 1017.70 1017.95 1018.46 1018.74 1018.85 1019.29 1019.60
1016.26 1016.04 1016.09 1016.43 1017.10 1016.46 1015.70 1013.22 1011.45 1010.79 1010.20 1009.79 1010.00 1010.37 1010.45 1010.61 1010.30 1010.36 1010.48 1010.62 1010.56 1010.65 1010.86 1011.15 1011.49 1011.87 1012.18 1012.31 1012.45 1012.86 1013.28 1013.62 1014.06 1014.33 1014.49 1014.64 1015.02 1015.20 1015.53 1015.81 1016.12 1016.33 1016.70 1017.07 1017.56 1017.78 1018.12 1018.51 1018.79
1015.60 1015.06 1015.49 1015.49 1015.13 1015.07 1014.45 1011.82 1010.56 1010.39 1010.15 1009.96 1009.98 1010.24 1010.41 1010.56 1010.29 1010.34 1010.59 1010.56 1010.56 1010.56 1010.90 1011.10 1011.30 1011.57 1011.84 1012.09 1012.31 1012.43 1012.73 1013.03 1013.39 1013.57 1013.66 1014.03 1014.33 1014.62 1014.76 1015.20 1015.53 1015.81 1016.12 1016.46 1016.82 1016.98 1017.35 1017.73 1018.08
Wind_Speed
8 9 2 5 5 6 2 3 4 3 2 3 2 9 8 4 2 3 1 8 13 9 7 8 10 12 14 13 12 11 13 15 15 15 19 19 18 18 19 16 16 16 17 17 16 17 17 16 15
6 5 5 2 5 2 4 2 4 3 5 9 8 4 6 3 1 7 5 10 13 9 7 7 10 13 14 12 11 12 12 13 11 16 19 19 16 16 17 15 14 16 16 16 16 16 15 14 15
5 3 4 4 3 4 4 3 6 2 4 3 5 7 3 2 3 7 10 12 11 9 7 9 11 13 14 13 12 11 12 11 9 16 19 19 17 17 14 14 14 15 15 16 16 16 14 13 15
4 5 4 3 3 4 6 6 5 6 2 6 6 7 3 4 5 7 14 12 11 8 7 10 12 13 14 13 13 13 13 10 14 18 19 18 18 15 14 13 14 14 14 15 15 13 12 13 13
4 3 3 1 3 3 2 6 6 4 4 4 3 4 2 5 5 14 13 12 13 7 6 7 10 12 12 11 12 16 13 13 14 15 18 17 17 15 14 13 13 13 13 14 13 12 11 11 12
4 3 3 3 2 1 2 5 6 5 5 5 7 5 4 1 8 10 14 12 12 10 6 6 8 9 9 10 9 12 10 14 12 18 17 16 14 14 13 13 12 12 12 12 11 10 9 10 10
5 3 3 1 1 2 5 6 5 6 7 3 10 6 1 1 6 10 10 10 10 9 7 5 5 7 6 6 7 9 11 11 14 17 17 15 13 12 12 11 11 11 11 11 10 8 7 7 7
4 3 1 2 2 3 1 3 2 3 3 7 5 6 6 7 8 7 10 8 10 7 7 6 5 5 5 4 5 8 8 10 13 14 14 12 11 10 9 8 9 10 9 9 8 6 6 6 8
2 3 2 2 5 6 3 3 2 1 6 4 3 5 3 12 8 8 9 7 7 6 7 7 6 5 5 4 4 6 8 11 11 11 13 10 5 6 6 6 8 7 7 7 6 4 2 4 6
2 3 4 5 1 4 2 1 5 4 3 4 4 4 7 8 8 10 13 12 11 10 7 8 7 6 6 4 4 3 4 4 5 5 6 4 5 5 5 6 7 7 5 5 4 3 2 4 2
2 5 3 2 2 2 5 2 1 8 2 6 8 7 7 7 7 8 11 15 14 14 9 7 9 7 6 5 3 2 2 3 3 6 5 5 4 3 3 2 2 2 2 1 1 1 1 2 2
2 5 5 5 8 6 4 1 1 3 3 3 9 14 12 11 11 11 9 11 11 13 12 12 9 9 6 4 4 3 3 3 3 4 5 4 3 4 4 3 4 3 2 3 2 1 2 2 2
1 3 5 5 9 8 4 2 2 4 4 6 12 11 14 13 10 7 7 8 9 12 11 12 11 10 8 7 4 4 4 3 4 3 4 4 4 4 4 4 4 4 3 3 3 3 2 3 3
6 2 4 6 5 5 4 3 1 2 3 9 13 12 11 12 11 7 9 10 11 10 13 8 10 13 11 9 7 5 4 5 4 4 5 6 5 4 4 4 4 4 4 4 4 4 3 3 2
3 4 7 8 2 3 2 6 5 4 6 8 8 9 10 11 9 12 12 13 11 10 10 10 11 13 13 12 10 7 7 5 5 4 6 7 6 6 5 4 4 4 3 4 3 2 1 2 2
5 2 3 6 7 6 6 14 9 8 8 9 9 8 11 14 15 12 10 12 11 12 13 10 8 11 13 11 9 7 7 7 7 6 5 6 6 6 5 4 4 4 4 4 3 3 2 2 3
3 4 5 6 9 5 8 8 10 8 9 9 10 10 12 11 11 13 13 14 13 13 12 12 10 10 11 9 8 8 8 7 6 5 6 8 7 8 6 5 5 5 4 3 3 3 2 2 1
5 4 4 8 5 8 9 16 5 5 9 11 11 11 12 13 19 18 16 16 9 13 12 14 11 11 9 8 5 4 4 6 5 7 7 7 7 7 5 4 5 5 4 4 3 3 3 2 2
6 6 9 4 10 5 15 20 10 12 5 8 9 8 10 15 18 16 15 14 11 11 13 14 14 14 10 6 8 6 9 6 5 7 9 9 7 7 6 5 5 5 5 5 5 3 4 4 2
4 2 4 5 4 8 8 17 15 7 8 9 11 11 10 7 10 11 13 12 15 14 15 15 17 16 13 10 6 4 6 5 8 6 5 9 9 9 8 7 6 6 4 5 5 5 3 3 4
9 8 3 5 2 3 2 9 10 8 10 8 10 14 12 14 13 13 15 17 18 17 17 17 18 17 15 14 5 2 3 2 3 3 5 9 10 10 10 9 7 7 6 6 5 6 7 4 4
15 9 6 6 2 5 5 9 8 10 15 10 15 13 16 15 14 13 16 17 19 20 17 18 17 17 15 16 12 13 11 11 10 10 8 9 12 12 12 12 11 10 7 7 8 7 6 3 5
8 9 13 7 4 3 4 5 6 5 10 14 17 18 18 17 15 15 16 18 18 18 18 18 17 17 16 16 17 13 15 10 6 7 9 10 10 13 12 12 11 10 8 10 9 7 9 8 4
9 5 4 3 3 13 11 9 8 12 10 9 12 14 14 13 14 15 15 17 16 17 16 16 17 18 17 16 18 18 18 15 10 8 9 9 9 9 12 13 13 11 10 11 10 11 11 10 8
10 9 4 7 8 19 10 10 21 8 8 14 15 14 10 10 9 11 11 12 14 17 18 15 17 18 18 18 17 19 17 16 17 13 10 10 9 9 13 14 13 11 13 12 11 10 11 10 10
19 17 6 7 7 9 3 12 9 12 21 21 15 9 6 8 8 9 10 11 15 17 19 18 18 18 17 18 18 16 17 12 12 14 12 11 11 12 12 13 15 15 14 13 11 9 9 11 11
9 19 11 3 3 3 7 9 7 8 11 15 16 8 11 9 8 9 9 8 11 13 18 19 17 17 16 17 16 18 17 18 17 17 12 11 12 10 11 13 15 15 14 14 13 11 13 12 12
15 7 12 5 5 7 6 6 11 3 14 14 7 9 9 8 7 4 5 4 6 9 12 15 16 18 19 20 17 15 17 17 17 14 15 15 14 13 12 13 15 15 15 15 15 13 13 13 11
7 13 9 6 4 5 4 9 9 19 19 20 9 7 7 8 6 4 2 1 1 3 6 5 6 8 8 11 13 13 13 15 15 15 14 16 14 14 14 15 15 16 16 16 14 15 13 13 12
14 12 19 11 19 3 1 12 3 8 10 7 7 6 5 6 6 5 3 2 2 4 4 6 7 7 7 6 7 8 10 11 13 14 16 14 14 13 15 14 14 14 14 13 14 15 11 14 13
Wind_Direction
327 318 34 35 53 63 281 249 171 138 61 344 19 103 115 72 44 166 314 133 131 128 128 119 116 118 121 118 117 110 111 108 117 118 106 93 94 97 97 92 92 90 89 88 89 93 94 87 77
323 331 39 73 85 69 274 252 138 183 157 115 93 79 47 85 83 118 106 144 129 129 122 123 128 126 125 120 115 111 107 114 123 117 105 102 99 100 95 101 94 93 91 89 88 94 93 81 73
348 45 74 94 126 174 207 173 153 138 165 116 89 53 103 135 118 155 141 139 123 123 129 131 131 129 129 124 122 125 113 111 119 116 112 109 102 100 101 101 97 97 94 92 90 94 90 77 73
13 4 25 96 215 238 191 177 159 144 71 66 115 71 40 285 151 153 140 137 124 126 132 131 135 133 133 133 132 128 120 120 129 114 107 110 108 106 105 104 97 97 97 95 92 93 88 76 72
26 54 58 200 243 289 78 163 170 125 116 93 125 160 73 334 116 134 133 138 129 131 132 130 131 136 139 138 139 132 125 115 120 116 112 107 109 112 111 107 105 102 100 99 97 94 87 78 71
32 83 75 217 223 253 164 195 159 138 141 165 79 103 174 32 126 149 136 140 132 132 127 128 137 135 139 148 148 129 136 120 120 112 112 109 113 120 118 115 111 105 101 99 98 92 85 79 73
108 76 217 304 251 299 186 153 169 158 139 148 140 102 229 244 165 148 130 131 123 129 121 127 141 141 134 143 135 140 127 124 122 118 118 120 124 123 120 117 114 109 105 105 105 99 89 80 73
99 114 255 349 332 275 248 114 105 114 155 130 127 162 185 217 183 121 122 122 127 130 131 132 123 128 130 146 133 126 126 120 110 117 114 114 112 108 110 104 116 118 119 115 109 94 73 57 34
163 89 172 21 11 304 325 110 12 29 99 62 34 151 217 160 134 125 137 127 131 135 146 142 132 131 133 134 148 126 126 130 129 122 125 121 128 126 122 130 125 127 131 128 124 108 55 29 9
84 132 215 170 276 292 306 86 150 106 101 35 36 8 95 118 138 150 159 158 164 158 167 159 149 153 150 149 150 129 125 136 131 128 135 135 139 145 147 151 151 150 148 144 136 119 63 60 61
282 185 59 299 282 305 297 82 269 126 235 198 181 174 141 136 151 162 171 167 172 169 166 173 165 163 160 153 158 150 157 156 150 146 148 150 144 150 144 147 144 166 177 128 61 110 106 118 130
294 252 150 291 331 339 296 326 71 183 215 206 172 163 156 163 181 182 174 166 161 165 175 174 173 167 170 153 164 177 163 173 168 166 174 159 155 165 162 167 177 186 194 199 194 189 173 178 160
212 250 221 273 293 256 303 256 236 247 244 96 132 157 171 174 188 203 172 161 165 170 181 183 168 175 174 168 171 168 195 189 195 186 179 161 169 178 171 189 189 203 182 183 186 194 191 199 199
192 248 240 231 244 261 211 248 331 302 122 126 152 173 184 185 184 184 183 191 179 176 182 183 173 176 172 174 175 182 184 195 204 190 185 191 181 187 195 196 199 198 194 190 182 187 191 213 194
170 157 267 262 215 254 327 293 232 200 125 152 177 175 185 200 203 197 200 195 188 191 183 188 184 179 180 181 183 179 186 187 189 204 201 187 182 188 188 193 201 202 194 178 181 172 228 265 207
150 170 202 245 185 232 153 260 232 220 150 191 195 197 195 208 206 208 200 202 194 195 192 189 191 189 185 183 180 186 191 186 192 190 194 199 198 194 193 195 200 193 185 182 172 177 195 201 188
224 198 182 281 204 165 180 246 226 219 196 210 208 200 208 211 224 219 209 207 199 200 192 193 190 196 186 186 184 179 189 193 195 189 195 198 195 198 192 191 200 189 188 185 180 201 170 195 209
195 189 193 202 235 216 219 253 252 256 193 216 210 210 209 208 217 215 210 211 194 194 197 198 197 191 184 185 176 165 179 198 187 195 201 196 199 195 191 201 201 189 186 193 182 186 196 185 196
168 181 213 236 238 191 224 246 234 240 225 235 234 220 217 216 222 212 211 210 207 190 192 198 195 197 185 179 187 191 193 197 205 200 201 197 197 194 192 202 196 191 189 193 187 169 197 242 167
240 229 245 284 274 177 260 254 247 232 233 212 218 232 223 228 228 210 209 204 203 200 200 199 204 197 196 196 195 179 188 208 204 205 195 196 196 193 195 194 197 193 184 200 191 176 188 238 197
236 220 228 236 282 206 326 268 253 241 241 238 228 226 227 211 215 214 209 204 205 205 203 203 203 199 201 200 164 136 127 106 180 191 205 207 204 202 200 198 195 197 194 202 196 195 192 201 218
226 167 214 262 256 233 161 275 246 231 237 220 235 225 229 228 226 211 207 209 206 208 202 206 200 201 200 199 198 201 203 206 213 212 210 206 205 208 203 204 203 206 198 203 206 199 203 180 202
219 174 203 217 225 316 220 266 261 209 233 238 237 236 236 237 230 223 212 208 209 204 203 201 200 200 198 200 206 206 212 215 213 211 208 206 206 212 209 206 205 207 203 210 202 195 206 209 198
152 87 56 77 151 250 220 220 219 224 217 238 238 237 233 235 234 230 215 204 206 205 205 198 197 203 197 195 203 211 216 215 212 205 207 213 211 209 212 207 208 209 209 210 209 210 210 212 219
180 155 205 212 209 241 181 211 249 242 239 226 231 235 231 232 232 232 211 203 204 199 201 198 196 203 198 196 200 209 216 216 220 212 210 209 213 214 214 205 207 210 211 212 211 212 218 211 216
200 193 177 201 197 248 101 232 241 221 232 243 249 240 233 241 249 247 231 203 203 200 200 199 198 206 195 198 205 204 209 212 216 214 212 215 216 218 214 209 213 213 211 212 209 214 219 218 221
183 213 203 81 9 65 209 275 291 256 262 258 249 224 241 233 241 246 253 216 199 203 204 200 199 204 197 200 203 207 208 211 216 221 215 220 223 222 213 207 209 214 213 212 209 214 218 214 218
216 161 198 212 190 232 246 256 234 293 248 252 254 236 249 235 222 241 247 278 221 210 203 202 204 201 199 202 206 211 213 217 221 220 218 218 223 214 207 207 209 213 215 214 211 217 222 213 216
181 203 213 186 173 219 258 252 215 216 218 236 226 226 224 197 183 199 206 213 162 156 178 191 201 215 212 212 214 213 216 218 220 221 221 221 221 217 212 212 214 216 217 219 219 224 223 219 219
243 217 201 205 215 224 185 250 209 247 251 220 200 189 203 193 172 162 152 143 153 133 153 183 190 198 203 201 208 213 218 215 217 221 225 224 226 223 222 219 220 222 222 216 216 222 214 215 212